Kenai, AK

8:14 PM AKST on December 14, 2019 (GMT -0900)
Kenai Municipal

Weather History for PAEN - October, 2019

Change the Weather History Date:

Wednesday, October 2, 2019

  Actual Average Record
Temperature  
Mean Temperature 44 °F -  
Max Temperature 53 °F 47 °F 60 °F (2003)
Min Temperature 34 °F 33 °F 18 °F (1957)
Degree Days  
Heating Degree Days 21    
Moisture  
Dew Point 37 °F    
Average Humidity 80    
Maximum Humidity 93    
Minimum Humidity 59    
Precipitation  
Precipitation 0.00 in - - ()
Sea Level Pressure  
Sea Level Pressure 29.88 in    
Wind  
Wind Speed 2 mph (North)    
Max Wind Speed 6 mph    
Max Gust Speed -    
Visibility 10 miles    
Events      
Averages and records for this station are not official NWS values.
T = Trace of Precipitation, MM = Missing Value Source: NWS Daily Summary

Daily Weather History Graph

Daily Weather History Graph

Search for Another Location

Airport or City:

Astronomy

Oct. 02, 2019 Rise Set
Actual Time 8:13 AM AKDT 7:33 PM AKDT
Civil Twilight 7:31 AM AKDT 8:15 PM AKDT
Nautical Twilight 6:41 AM AKDT 9:05 PM AKDT
Astronomical Twilight 5:49 AM AKDT 9:57 PM AKDT
Moon 2:02 PM AKDT (10/2) 9:19 PM AKDT (10/2)
Length of Visible Light 12h 44m
Length of Day
11h 20m
Waxing Crescent, 22% of the Moon is Illuminated
Oct 2
Waxing Crescent
Oct 5
First Quarter
Oct 13
Full
Oct 21
Last Quarter
Oct 27
New

Hourly Weather History & Observations

Time (AKDT) Temp. Windchill Dew Point Humidity Pressure Visibility Wind Dir Wind Speed Gust Speed Precip Events Conditions
12:53 AM 41.0 °F 39.0 °F 37.0 °F 86% 29.71 in 10.0 mi NNE 3.5 mph - N/A   Clear
1:53 AM 43.0 °F 39.5 °F 37.9 °F 82% 29.73 in 10.0 mi North 5.8 mph - N/A   Clear
2:53 AM 42.1 °F - 37.9 °F 85% 29.76 in 10.0 mi Calm Calm - N/A   Mostly Cloudy
3:53 AM 39.9 °F - 37.0 °F 89% 29.77 in 10.0 mi Calm Calm - N/A   Clear
4:53 AM 37.0 °F - 35.1 °F 93% 29.78 in 10.0 mi Calm Calm - N/A   Clear
5:53 AM 37.9 °F 35.5 °F 35.1 °F 89% 29.80 in 10.0 mi ENE 3.5 mph - N/A   Mostly Cloudy
6:53 AM 39.0 °F 36.8 °F 36.0 °F 89% 29.82 in 10.0 mi NW 3.5 mph - N/A   Scattered Clouds
7:53 AM 39.9 °F 36.7 °F 37.0 °F 89% 29.84 in 10.0 mi ENE 4.6 mph - N/A   Overcast
8:53 AM 41.0 °F - 36.0 °F 82% 29.86 in 10.0 mi Calm Calm - N/A   Overcast
9:53 AM 42.1 °F - 39.0 °F 89% 29.87 in 10.0 mi Calm Calm - N/A   Overcast
10:53 AM 44.1 °F 41.5 °F 37.9 °F 79% 29.88 in 10.0 mi East 4.6 mph - N/A   Overcast
11:53 AM 46.0 °F - 37.9 °F 73% 29.91 in 10.0 mi Calm Calm - N/A   Overcast
12:53 PM 46.0 °F - 39.0 °F 76% 29.92 in 10.0 mi Calm Calm - N/A   Overcast
1:53 PM 48.0 °F - 39.9 °F 74% 29.92 in 10.0 mi Calm Calm - 0.00 in   Overcast
2:53 PM 50.0 °F - 39.9 °F 68% 29.93 in 10.0 mi Calm Calm - N/A   Overcast
3:53 PM 51.1 °F - 41.0 °F 68% 29.94 in 10.0 mi WNW 4.6 mph - N/A   Overcast
4:53 PM 52.0 °F - 37.9 °F 59% 29.94 in 10.0 mi Calm Calm - N/A   Clear
5:53 PM 52.0 °F - 37.9 °F 59% 29.94 in 10.0 mi West 4.6 mph - N/A   Scattered Clouds
6:53 PM 50.0 °F - 37.9 °F 63% 29.95 in 10.0 mi Calm Calm - N/A   Partly Cloudy
7:53 PM 44.6 °F - 37.4 °F 76% 29.95 in 10.0 mi Calm Calm - N/A   Clear
8:53 PM 39.9 °F - 36.0 °F 86% 29.97 in 10.0 mi Calm Calm - N/A   Mostly Cloudy
9:53 PM 37.9 °F - 35.1 °F 89% 29.98 in 10.0 mi Calm Calm - N/A   Clear
10:53 PM 36.0 °F - 34.0 °F 93% 29.99 in 10.0 mi Calm Calm - N/A   Clear
11:53 PM 34.0 °F - 30.9 °F 89% 29.99 in 10.0 mi Calm Calm - N/A   Clear